sat.trackr.live / text

‹ back to catalog

STARLINK-6122

NORAD 56128 · 2023-046AN

PAYLOAD ACTIVE UNKNOWN

§ Identity

Operator
Country
US
Launch date
2023-03-29
Launch site
AFETR
Launch vehicle
Mass (kg)
RCS (m²)

Purposes: comms

External: N2YO · Heavens-Above · Gunter

§ Orbital elements

Epoch: 2026-09-20T00:08:11.942592Z

Period
94.27 min
Inclination
43.0021°
Eccentricity
0.0000986
Mean motion
15.27595687 rev/d
Perigee alt
482.3 km
Apogee alt
483.7 km
Semi-major
6,861.1 km
B*
9.3807e-5
RAAN
129.9848°
Arg perigee
266.3288°
Mean anomaly
93.7451°
Rev number
19,191

§ Raw data

STARLINK-61221 56128U 23046AN  26263.00569378  .00002321  00000+0  93807-4 0  99922 56128  43.0021 129.9848 0000986 266.3288  93.7451 15.27595687191918

JSON: /api/v1/satellites/56128 · /tle

For live sub-satellite position, see the globe view (requires WebGL).

§ Visibility from observer

Set your observer location to see the next 7 days of passes ≥ 10°. The values pass through the URL so the page stays shareable.

No JS? Fill the form by hand. The geolocation button needs JavaScript.